Starlink 5256

operational
NORAD ID: 54175 Int'l Des: 2022-141 Owner: SPXS Country: US Constellation: starlink
LEOCIRCULAR

About Starlink 5256

Description loading...

Live Position

Loading 3D Globe...

Upcoming Passes

Altitude History

Altitude vs Time

uPlot chart will show altitude changes over time

Two-Line Element Set

1 54175U 22141U 25303.10537000 .00001663 00000-0 12258-3 0 9998
2 54175 53.2178 230.3510 0001549 73.6239 286.4923 15.08838802166148
Epoch: Oct 30, 2025 • Age: 26 hours

Current Status

Altitude 545.3 km
Velocity 7.60 km/s
Sub-Earth Point 53.36°N, 148.69°W
Launch Date Oct 28, 2022
Age 3 years
Type internet

Technical Details

Classification Payload
Mass 305.00 kg
Dry Mass 290.00 kg
Total Mass 305.00 kg
Length 0.20 m
Diameter 2.80 m
Span 9.00 m
Shape Box + pan
Manufacturer SPXS
Bus Type Starlink
Phase Status In Orbit
Owner/State SPXS/US

Large Constellations

Loading constellations...